Time,TemperatureF,DewpointF,PressureIn,WindDirection,WindDirectionDegrees,WindSpeedMPH,WindSpeedGustMPH,Humidity,HourlyPrecipIn,Conditions,Clouds,dailyrainin,SoftwareType,DateUTC
2013-06-14 00:01:00,72.5,66.3,29.97,NNE,32,0.0,0.0,81,0.00,,---,0.00,VWS V14.00,2013-06-14 05:01:00,
2013-06-14 00:06:00,72.5,66.7,29.97,NNE,32,0.0,0.0,82,0.00,,---,0.00,VWS V14.00,2013-06-14 05:06:00,
2013-06-14 00:11:00,72.3,66.5,29.97,NNE,32,0.0,0.0,82,0.00,,---,0.00,VWS V14.00,2013-06-14 05:11:00,
2013-06-14 00:16:00,72.1,66.7,29.97,NNE,32,0.0,0.0,83,0.00,,---,0.00,VWS V14.00,2013-06-14 05:16:00,
2013-06-14 00:21:00,72.0,66.6,29.97,NNE,32,0.0,0.0,83,0.00,,---,0.00,VWS V14.00,2013-06-14 05:21:00,
2013-06-14 00:26:00,71.8,66.4,29.97,NNE,32,0.0,0.0,83,0.00,,---,0.00,VWS V14.00,2013-06-14 05:26:00,
2013-06-14 00:31:00,71.6,66.5,29.97,NNE,32,0.0,0.0,84,0.00,,---,0.00,VWS V14.00,2013-06-14 05:31:00,
2013-06-14 00:36:00,71.5,66.4,29.97,NNE,32,0.0,0.0,84,0.00,,---,0.00,VWS V14.00,2013-06-14 05:36:00,
2013-06-14 00:41:00,71.3,66.6,29.97,NNE,32,0.0,0.0,85,0.00,,---,0.00,VWS V14.00,2013-06-14 05:41:00,
2013-06-14 00:46:00,71.1,66.4,29.97,NNE,32,0.0,0.0,85,0.00,,---,0.00,VWS V14.00,2013-06-14 05:46:00,
2013-06-14 00:51:00,71.1,66.7,29.96,NNE,32,0.0,0.0,86,0.00,,---,0.00,VWS V14.00,2013-06-14 05:51:00,
2013-06-14 00:56:00,71.1,66.7,29.96,NNE,32,0.0,0.0,86,0.00,,---,0.00,VWS V14.00,2013-06-14 05:56:00,
2013-06-14 01:01:00,71.1,66.7,29.96,NNE,32,0.0,0.0,86,0.00,,---,0.00,VWS V14.00,2013-06-14 06:01:00,
2013-06-14 01:06:00,70.9,66.5,29.96,NNE,32,0.0,0.0,86,0.00,,---,0.00,VWS V14.00,2013-06-14 06:06:00,
2013-06-14 01:11:00,70.8,66.7,29.96,NNE,32,0.0,0.0,87,0.00,,---,0.00,VWS V14.00,2013-06-14 06:11:00,
2013-06-14 01:16:00,70.8,66.7,29.96,NNE,32,0.0,0.0,87,0.00,,---,0.00,VWS V14.00,2013-06-14 06:16:00,
2013-06-14 01:21:00,70.4,66.3,29.96,NNE,32,0.0,0.0,87,0.00,,---,0.00,VWS V14.00,2013-06-14 06:21:00,
2013-06-14 01:26:00,70.3,66.2,29.96,NNE,32,0.0,0.0,87,0.00,,---,0.00,VWS V14.00,2013-06-14 06:26:00,
2013-06-14 01:31:00,70.1,66.4,29.96,NNE,32,0.0,0.0,88,0.00,,---,0.00,VWS V14.00,2013-06-14 06:31:00,
2013-06-14 01:36:00,69.9,66.2,29.95,NNE,32,0.0,0.0,88,0.00,,---,0.00,VWS V14.00,2013-06-14 06:36:00,
2013-06-14 01:41:00,69.9,66.2,29.96,NNE,32,0.0,0.0,88,0.00,,---,0.00,VWS V14.00,2013-06-14 06:41:00,
2013-06-14 01:46:00,69.8,66.4,29.96,NNE,32,0.0,0.0,89,0.00,,---,0.00,VWS V14.00,2013-06-14 06:46:00,
2013-06-14 01:51:00,69.8,66.4,29.95,NNE,32,0.0,0.0,89,0.00,,---,0.00,VWS V14.00,2013-06-14 06:51:00,
2013-06-14 01:56:00,69.6,66.2,29.95,NNE,32,0.0,0.0,89,0.00,,---,0.00,VWS V14.00,2013-06-14 06:56:00,
2013-06-14 02:01:00,69.3,65.9,29.95,NNE,32,0.0,0.0,89,0.00,,---,0.00,VWS V14.00,2013-06-14 07:01:00,
2013-06-14 02:06:00,69.3,65.9,29.95,NNE,32,0.0,0.0,89,0.00,,---,0.00,VWS V14.00,2013-06-14 07:06:00,
2013-06-14 02:11:00,69.1,65.7,29.95,NNE,32,0.0,0.0,89,0.00,,---,0.00,VWS V14.00,2013-06-14 07:11:00,
2013-06-14 02:16:00,68.9,65.8,29.95,NNE,32,0.0,0.0,90,0.00,,---,0.00,VWS V14.00,2013-06-14 07:16:00,
2013-06-14 02:21:00,68.9,65.8,29.95,NNE,32,0.0,0.0,90,0.00,,---,0.00,VWS V14.00,2013-06-14 07:21:00,
2013-06-14 02:26:00,68.9,65.8,29.95,NNE,32,0.0,0.0,90,0.00,,---,0.00,VWS V14.00,2013-06-14 07:26:00,
2013-06-14 02:31:00,68.9,65.8,29.95,NNE,32,0.0,0.0,90,0.00,,---,0.00,VWS V14.00,2013-06-14 07:31:00,
2013-06-14 02:36:00,68.9,65.8,29.95,NNE,32,0.0,0.0,90,0.00,,---,0.00,VWS V14.00,2013-06-14 07:36:00,
2013-06-14 02:41:00,68.9,65.8,29.95,NNE,32,0.0,0.0,90,0.00,,---,0.00,VWS V14.00,2013-06-14 07:41:00,
2013-06-14 02:46:00,68.9,66.2,29.95,NNE,32,0.0,0.0,91,0.00,,---,0.00,VWS V14.00,2013-06-14 07:46:00,
2013-06-14 02:51:00,69.1,66.4,29.95,NNE,32,0.0,0.0,91,0.00,,---,0.00,VWS V14.00,2013-06-14 07:51:00,
2013-06-14 02:56:00,69.1,66.4,29.95,NNE,32,0.0,0.0,91,0.00,,---,0.00,VWS V14.00,2013-06-14 07:56:00,
2013-06-14 03:01:00,69.1,66.4,29.95,NNE,32,0.0,0.0,91,0.00,,---,0.00,VWS V14.00,2013-06-14 08:01:00,
2013-06-14 03:06:00,69.1,66.4,29.96,NNE,32,0.0,0.0,91,0.00,,---,0.00,VWS V14.00,2013-06-14 08:06:00,
2013-06-14 03:11:00,68.9,66.2,29.96,NNE,32,0.0,0.0,91,0.00,,---,0.00,VWS V14.00,2013-06-14 08:11:00,
2013-06-14 03:16:00,68.9,66.2,29.96,NNE,32,0.0,0.0,91,0.00,,---,0.00,VWS V14.00,2013-06-14 08:16:00,
2013-06-14 03:21:00,69.1,66.1,29.96,NNE,32,0.0,0.0,90,0.00,,---,0.00,VWS V14.00,2013-06-14 08:21:00,
2013-06-14 03:26:00,69.3,66.2,29.96,NNE,32,0.0,0.0,90,0.00,,---,0.00,VWS V14.00,2013-06-14 08:26:00,
2013-06-14 03:31:00,69.6,66.2,29.97,NNE,32,0.0,0.0,89,0.00,,---,0.00,VWS V14.00,2013-06-14 08:31:00,
2013-06-14 03:36:00,69.6,66.2,29.96,NE,34,0.0,0.0,89,0.00,,---,0.00,VWS V14.00,2013-06-14 08:36:00,
2013-06-14 03:41:00,69.8,66.4,29.96,NE,36,0.0,0.0,89,0.00,,---,0.00,VWS V14.00,2013-06-14 08:41:00,
2013-06-14 03:46:00,69.8,66.1,29.96,NE,36,0.0,0.0,88,0.00,,---,0.00,VWS V14.00,2013-06-14 08:46:00,
2013-06-14 03:51:00,69.8,66.1,29.96,NE,40,0.0,0.0,88,0.00,,---,0.00,VWS V14.00,2013-06-14 08:51:00,
2013-06-14 03:56:00,69.8,66.1,29.96,NE,41,0.0,0.0,88,0.00,,---,0.00,VWS V14.00,2013-06-14 08:56:00,
2013-06-14 04:01:00,69.8,66.1,29.96,NE,41,0.0,0.0,88,0.00,,---,0.00,VWS V14.00,2013-06-14 09:01:00,
2013-06-14 04:06:00,69.6,65.9,29.96,NE,41,0.0,0.0,88,0.00,,---,0.00,VWS V14.00,2013-06-14 09:06:00,
2013-06-14 04:11:00,69.4,65.7,29.96,NE,41,0.0,0.0,88,0.00,,---,0.00,VWS V14.00,2013-06-14 09:11:00,
2013-06-14 04:16:00,69.3,65.6,29.96,NE,41,0.0,0.0,88,0.00,,---,0.00,VWS V14.00,2013-06-14 09:16:00,
2013-06-14 04:21:00,69.3,65.6,29.96,NE,41,0.0,0.0,88,0.00,,---,0.00,VWS V14.00,2013-06-14 09:21:00,
2013-06-14 04:26:00,69.4,65.7,29.97,NE,41,0.0,0.0,88,0.00,,---,0.00,VWS V14.00,2013-06-14 09:26:00,
2013-06-14 04:31:00,69.4,65.7,29.97,NE,41,0.0,0.0,88,0.00,,---,0.00,VWS V14.00,2013-06-14 09:31:00,
2013-06-14 04:36:00,69.4,65.7,29.97,NE,41,0.0,0.0,88,0.00,,---,0.00,VWS V14.00,2013-06-14 09:36:00,
2013-06-14 04:41:00,69.6,65.9,29.96,NE,41,0.0,0.0,88,0.00,,---,0.00,VWS V14.00,2013-06-14 09:41:00,
2013-06-14 04:46:00,69.6,65.9,29.96,NE,41,0.0,0.0,88,0.00,,---,0.00,VWS V14.00,2013-06-14 09:46:00,
2013-06-14 04:51:00,69.8,66.1,29.96,NE,41,0.0,0.0,88,0.00,,---,0.00,VWS V14.00,2013-06-14 09:51:00,
2013-06-14 04:56:00,69.8,66.1,29.96,NE,41,0.0,0.0,88,0.00,,---,0.00,VWS V14.00,2013-06-14 09:56:00,
2013-06-14 05:01:00,69.8,65.8,29.96,NE,41,0.0,0.0,87,0.00,,---,0.00,VWS V14.00,2013-06-14 10:01:00,
2013-06-14 05:06:00,69.8,65.8,29.96,NE,41,0.0,0.0,87,0.00,,---,0.00,VWS V14.00,2013-06-14 10:06:00,
2013-06-14 05:11:00,69.8,65.8,29.97,NE,41,0.0,0.0,87,0.00,,---,0.00,VWS V14.00,2013-06-14 10:11:00,
2013-06-14 05:16:00,69.6,65.6,29.97,NE,41,0.0,0.0,87,0.00,,---,0.00,VWS V14.00,2013-06-14 10:16:00,
2013-06-14 05:21:00,69.6,65.9,29.97,NE,41,0.0,0.0,88,0.00,,---,0.00,VWS V14.00,2013-06-14 10:21:00,
2013-06-14 05:26:00,69.4,65.7,29.98,NE,41,0.0,0.0,88,0.00,,---,0.00,VWS V14.00,2013-06-14 10:26:00,
2013-06-14 05:31:00,69.4,65.7,29.98,NE,41,0.0,0.0,88,0.00,,---,0.00,VWS V14.00,2013-06-14 10:31:00,
2013-06-14 05:36:00,69.3,65.6,29.98,NE,41,0.0,0.0,88,0.00,,---,0.00,VWS V14.00,2013-06-14 10:36:00,
2013-06-14 05:41:00,69.1,65.4,29.98,NE,41,0.0,0.0,88,0.00,,---,0.00,VWS V14.00,2013-06-14 10:41:00,
2013-06-14 05:45:00,68.9,65.2,29.98,NE,41,0.0,0.0,88,0.00,,---,0.00,VWS V14.00,2013-06-14 10:45:00,
2013-06-14 05:50:00,68.9,65.2,29.98,NE,41,0.0,0.0,88,0.00,,---,0.00,VWS V14.00,2013-06-14 10:50:00,
2013-06-14 05:55:00,68.8,65.1,29.98,NE,41,0.0,0.0,88,0.00,,---,0.00,VWS V14.00,2013-06-14 10:55:00,
2013-06-14 06:00:00,68.8,65.1,29.98,NE,41,0.0,0.0,88,0.00,,---,0.00,VWS V14.00,2013-06-14 11:00:00,
2013-06-14 06:05:00,68.6,65.2,29.98,NE,41,0.0,0.0,89,0.00,,---,0.00,VWS V14.00,2013-06-14 11:05:00,
2013-06-14 06:10:00,68.6,65.2,29.98,NE,41,0.0,0.0,89,0.00,,---,0.00,VWS V14.00,2013-06-14 11:10:00,
2013-06-14 06:15:00,68.6,65.2,29.98,NE,41,0.0,0.0,89,0.00,,---,0.00,VWS V14.00,2013-06-14 11:15:00,
2013-06-14 06:20:00,68.6,65.2,29.99,NE,51,0.0,0.0,89,0.00,,---,0.00,VWS V14.00,2013-06-14 11:20:00,
2013-06-14 06:25:00,68.6,65.2,29.99,NE,51,0.0,0.0,89,0.00,,---,0.00,VWS V14.00,2013-06-14 11:25:00,
2013-06-14 06:30:00,68.6,65.2,29.99,NE,51,0.0,0.0,89,0.00,,---,0.00,VWS V14.00,2013-06-14 11:30:00,
2013-06-14 06:35:00,68.4,65.0,29.99,NE,45,0.0,0.0,89,0.00,,---,0.00,VWS V14.00,2013-06-14 11:35:00,
2013-06-14 06:40:00,68.4,65.0,29.98,ENE,78,0.0,3.0,89,0.00,,---,0.00,VWS V14.00,2013-06-14 11:40:00,
2013-06-14 06:45:00,68.6,65.2,29.98,ENE,69,5.0,5.0,89,0.00,,---,0.00,VWS V14.00,2013-06-14 11:45:00,
2013-06-14 06:50:00,68.6,65.2,29.98,East,89,3.0,6.0,89,0.00,,---,0.00,VWS V14.00,2013-06-14 11:50:00,
2013-06-14 06:55:00,68.9,65.5,29.98,East,89,4.0,5.0,89,0.00,,---,0.00,VWS V14.00,2013-06-14 11:55:00,
2013-06-14 07:00:00,68.9,65.5,29.99,East,82,4.0,4.0,89,0.00,,---,0.00,VWS V14.00,2013-06-14 12:00:00,
2013-06-14 07:05:00,68.9,65.5,30.00,ENE,71,3.0,4.0,89,0.00,,---,0.00,VWS V14.00,2013-06-14 12:05:00,
2013-06-14 07:10:00,69.1,65.7,30.00,East,84,0.0,0.0,89,0.00,,---,0.00,VWS V14.00,2013-06-14 12:10:00,
2013-06-14 07:15:00,69.3,65.9,30.00,East,84,4.0,4.0,89,0.00,,---,0.00,VWS V14.00,2013-06-14 12:15:00,
2013-06-14 07:20:00,69.8,66.4,30.00,East,86,0.0,2.0,89,0.00,,---,0.00,VWS V14.00,2013-06-14 12:20:00,
2013-06-14 07:25:00,70.3,66.6,30.00,East,86,1.0,2.0,88,0.00,,---,0.00,VWS V14.00,2013-06-14 12:25:00,
2013-06-14 07:30:00,70.6,66.6,30.00,East,86,0.0,2.0,87,0.00,,---,0.00,VWS V14.00,2013-06-14 12:30:00,
2013-06-14 07:35:00,71.1,66.7,30.00,East,86,0.0,3.0,86,0.00,,---,0.00,VWS V14.00,2013-06-14 12:35:00,
2013-06-14 07:40:00,71.3,66.9,30.00,ESE,104,2.0,2.0,86,0.00,,---,0.00,VWS V14.00,2013-06-14 12:40:00,
2013-06-14 07:45:00,71.6,67.2,30.00,East,88,0.0,1.0,86,0.00,,---,0.00,VWS V14.00,2013-06-14 12:45:00,
2013-06-14 07:50:00,72.0,67.2,30.00,ESE,107,0.0,0.0,85,0.00,,---,0.00,VWS V14.00,2013-06-14 12:50:00,
2013-06-14 07:55:00,72.3,67.2,30.01,East,80,0.0,0.0,84,0.00,,---,0.00,VWS V14.00,2013-06-14 12:55:00,
2013-06-14 08:00:00,72.8,68.0,30.00,East,80,0.0,0.0,85,0.00,,---,0.00,VWS V14.00,2013-06-14 13:00:00,
2013-06-14 08:05:00,73.2,68.1,30.00,East,80,2.0,2.0,84,0.00,,---,0.00,VWS V14.00,2013-06-14 13:05:00,
2013-06-14 08:10:00,73.3,67.8,30.00,ENE,75,0.0,0.0,83,0.00,,---,0.00,VWS V14.00,2013-06-14 13:10:00,
2013-06-14 08:15:00,73.7,67.9,30.00,ENE,62,1.0,2.0,82,0.00,,---,0.00,VWS V14.00,2013-06-14 13:15:00,
2013-06-14 08:20:00,74.0,67.8,30.00,ENE,64,2.0,4.0,81,0.00,,---,0.00,VWS V14.00,2013-06-14 13:20:00,
2013-06-14 08:25:00,74.4,68.2,30.00,ENE,65,3.0,5.0,81,0.00,,---,0.00,VWS V14.00,2013-06-14 13:25:00,
2013-06-14 08:30:00,74.7,67.8,30.01,ENE,69,2.0,2.0,79,0.00,,---,0.00,VWS V14.00,2013-06-14 13:30:00,
2013-06-14 08:35:00,74.9,67.9,30.01,ENE,69,1.0,4.0,79,0.00,,---,0.00,VWS V14.00,2013-06-14 13:35:00,
2013-06-14 08:40:00,75.3,68.0,30.01,ENE,77,6.0,7.0,78,0.00,,---,0.00,VWS V14.00,2013-06-14 13:40:00,
2013-06-14 08:45:00,75.4,67.7,30.01,East,92,4.0,5.0,77,0.00,,---,0.00,VWS V14.00,2013-06-14 13:45:00,
2013-06-14 08:50:00,75.6,67.9,30.01,East,94,1.0,3.0,77,0.00,,---,0.00,VWS V14.00,2013-06-14 13:50:00,
2013-06-14 08:55:00,76.0,67.9,30.01,East,89,9.0,9.0,76,0.00,,---,0.00,VWS V14.00,2013-06-14 13:55:00,
2013-06-14 09:00:00,76.1,67.6,30.01,ESE,116,10.0,10.0,75,0.00,,---,0.00,VWS V14.00,2013-06-14 14:00:00,
2013-06-14 09:05:00,76.3,68.2,30.01,ESE,115,4.0,9.0,76,0.00,,---,0.00,VWS V14.00,2013-06-14 14:05:00,
2013-06-14 09:10:00,76.3,67.8,30.01,ESE,121,9.0,11.0,75,0.00,,---,0.00,VWS V14.00,2013-06-14 14:10:00,
2013-06-14 09:15:00,76.3,67.8,30.01,ESE,123,7.0,9.0,75,0.00,,---,0.00,VWS V14.00,2013-06-14 14:15:00,
2013-06-14 09:20:00,76.7,68.2,30.01,ESE,116,3.0,5.0,75,0.00,,---,0.00,VWS V14.00,2013-06-14 14:20:00,
2013-06-14 09:25:00,76.8,67.5,30.01,East,94,8.0,8.0,73,0.00,,---,0.00,VWS V14.00,2013-06-14 14:25:00,
2013-06-14 09:30:00,76.8,67.9,30.01,ESE,121,3.0,7.0,74,0.00,,---,0.00,VWS V14.00,2013-06-14 14:30:00,
2013-06-14 09:35:00,77.2,67.9,30.01,ESE,118,4.0,5.0,73,0.00,,---,0.00,VWS V14.00,2013-06-14 14:35:00,
2013-06-14 09:40:00,77.4,67.7,30.01,ESE,120,0.0,1.0,72,0.00,,---,0.00,VWS V14.00,2013-06-14 14:40:00,
2013-06-14 09:45:00,77.7,68.0,30.01,ESE,120,2.0,6.0,72,0.00,,---,0.00,VWS V14.00,2013-06-14 14:45:00,
2013-06-14 09:50:00,77.9,68.2,30.01,East,88,0.0,3.0,72,0.00,,---,0.00,VWS V14.00,2013-06-14 14:50:00,
2013-06-14 09:55:00,78.6,68.8,30.01,SE,142,7.0,7.0,72,0.00,,---,0.00,VWS V14.00,2013-06-14 14:55:00,
2013-06-14 10:00:00,79.0,68.4,30.01,SSE,147,0.0,6.0,70,0.00,,---,0.00,VWS V14.00,2013-06-14 15:00:00,
2013-06-14 10:05:00,79.2,68.2,30.01,SSE,154,9.0,9.0,69,0.00,,---,0.00,VWS V14.00,2013-06-14 15:05:00,
2013-06-14 10:10:00,79.2,67.7,30.01,South,177,6.0,11.0,68,0.00,,---,0.00,VWS V14.00,2013-06-14 15:10:00,
2013-06-14 10:15:00,79.4,67.9,30.01,South,170,5.0,5.0,68,0.00,,---,0.00,VWS V14.00,2013-06-14 15:15:00,
2013-06-14 10:20:00,79.8,68.3,30.01,ESE,121,0.0,3.0,68,0.00,,---,0.00,VWS V14.00,2013-06-14 15:20:00,
2013-06-14 10:25:00,79.9,68.4,30.01,SE,144,3.0,4.0,68,0.00,,---,0.00,VWS V14.00,2013-06-14 15:25:00,
2013-06-14 10:30:00,79.9,68.0,30.01,SSE,160,5.0,5.0,67,0.00,,---,0.00,VWS V14.00,2013-06-14 15:30:00,
2013-06-14 10:35:00,80.1,68.2,30.01,SSE,165,2.0,4.0,67,0.00,,---,0.00,VWS V14.00,2013-06-14 15:35:00,
2013-06-14 10:40:00,80.3,67.9,30.01,SSE,160,2.0,10.0,66,0.00,,---,0.00,VWS V14.00,2013-06-14 15:40:00,
2013-06-14 10:45:00,80.1,67.7,30.01,SSE,164,5.0,7.0,66,0.00,,---,0.00,VWS V14.00,2013-06-14 15:45:00,
2013-06-14 10:50:00,80.3,68.3,30.01,SSE,159,9.0,9.0,67,0.00,,---,0.00,VWS V14.00,2013-06-14 15:50:00,
2013-06-14 10:55:00,80.3,68.3,30.01,SSE,153,2.0,5.0,67,0.00,,---,0.00,VWS V14.00,2013-06-14 15:55:00,
2013-06-14 11:00:00,80.3,67.9,30.01,ESE,113,6.0,7.0,66,0.00,,---,0.00,VWS V14.00,2013-06-14 16:00:00,
2013-06-14 11:05:00,80.5,68.5,30.01,ESE,108,5.0,6.0,67,0.00,,---,0.00,VWS V14.00,2013-06-14 16:05:00,
2013-06-14 11:10:00,80.3,67.5,30.01,ESE,119,3.0,7.0,65,0.00,,---,0.00,VWS V14.00,2013-06-14 16:10:00,
2013-06-14 11:15:00,80.3,67.9,30.01,ESE,103,9.0,9.0,66,0.00,,---,0.00,VWS V14.00,2013-06-14 16:15:00,
2013-06-14 11:20:00,80.5,68.1,30.01,SE,126,9.0,9.0,66,0.00,,---,0.00,VWS V14.00,2013-06-14 16:20:00,
2013-06-14 11:25:00,80.7,68.7,30.00,SE,131,9.0,10.0,67,0.00,,---,0.00,VWS V14.00,2013-06-14 16:25:00,
2013-06-14 11:30:00,80.9,68.9,30.00,SE,138,10.0,12.0,67,0.00,,---,0.00,VWS V14.00,2013-06-14 16:30:00,
2013-06-14 11:35:00,81.1,68.7,30.00,SE,144,6.0,10.0,66,0.00,,---,0.00,VWS V14.00,2013-06-14 16:35:00,
2013-06-14 11:40:00,81.1,68.7,30.00,SE,142,7.0,10.0,66,0.00,,---,0.00,VWS V14.00,2013-06-14 16:40:00,
2013-06-14 11:45:00,81.2,69.2,30.00,SE,143,10.0,11.0,67,0.00,,---,0.00,VWS V14.00,2013-06-14 16:45:00,
2013-06-14 11:50:00,81.4,69.0,30.00,SE,142,5.0,6.0,66,0.00,,---,0.00,VWS V14.00,2013-06-14 16:50:00,
2013-06-14 11:55:00,81.8,68.9,30.00,SE,145,6.0,9.0,65,0.00,,---,0.00,VWS V14.00,2013-06-14 16:55:00,
2013-06-14 12:00:00,82.4,69.9,30.00,SE,146,2.0,2.0,66,0.00,,---,0.00,VWS V14.00,2013-06-14 17:00:00,
2013-06-14 12:05:00,82.2,69.3,30.00,ESE,118,7.0,7.0,65,0.00,,---,0.00,VWS V14.00,2013-06-14 17:05:00,
2013-06-14 12:10:00,82.0,68.6,30.00,SE,124,3.0,4.0,64,0.00,,---,0.00,VWS V14.00,2013-06-14 17:10:00,
2013-06-14 12:15:00,82.8,69.8,29.99,SE,132,4.0,9.0,65,0.00,,---,0.00,VWS V14.00,2013-06-14 17:15:00,
2013-06-14 12:20:00,82.8,69.8,29.99,SE,133,5.0,5.0,65,0.00,,---,0.00,VWS V14.00,2013-06-14 17:20:00,
2013-06-14 12:25:00,83.4,69.5,29.98,SE,130,11.0,11.0,63,0.00,,---,0.00,VWS V14.00,2013-06-14 17:25:00,
2013-06-14 12:30:00,83.4,69.5,29.98,SE,131,5.0,6.0,63,0.00,,---,0.00,VWS V14.00,2013-06-14 17:30:00,
2013-06-14 12:35:00,83.8,69.9,29.98,SSE,167,0.0,3.0,63,0.00,,---,0.00,VWS V14.00,2013-06-14 17:35:00,
2013-06-14 12:40:00,84.3,70.8,29.98,SSE,167,4.0,5.0,64,0.00,,---,0.00,VWS V14.00,2013-06-14 17:40:00,
2013-06-14 12:45:00,84.3,69.9,29.98,SSE,155,9.0,10.0,62,0.00,,---,0.00,VWS V14.00,2013-06-14 17:45:00,
2013-06-14 12:50:00,84.5,70.1,29.98,South,174,3.0,4.0,62,0.00,,---,0.00,VWS V14.00,2013-06-14 17:50:00,
2013-06-14 12:55:00,84.1,69.7,29.98,SE,146,10.0,12.0,62,0.00,,---,0.00,VWS V14.00,2013-06-14 17:55:00,
2013-06-14 13:00:00,84.0,70.1,29.98,SSE,148,0.0,1.0,63,0.00,,---,0.00,VWS V14.00,2013-06-14 18:00:00,
2013-06-14 13:05:00,84.3,70.3,29.98,SSE,154,5.0,6.0,63,0.00,,---,0.00,VWS V14.00,2013-06-14 18:05:00,
2013-06-14 13:10:00,84.7,70.2,29.98,SSE,155,1.0,2.0,62,0.00,,---,0.00,VWS V14.00,2013-06-14 18:10:00,
2013-06-14 13:15:00,84.9,70.9,29.98,SSE,155,0.0,1.0,63,0.00,,---,0.00,VWS V14.00,2013-06-14 18:15:00,
2013-06-14 13:20:00,84.7,70.2,29.98,SSE,157,6.0,11.0,62,0.00,,---,0.00,VWS V14.00,2013-06-14 18:20:00,
2013-06-14 13:25:00,85.1,70.6,29.97,SSE,161,0.0,1.0,62,0.00,,---,0.00,VWS V14.00,2013-06-14 18:25:00,
2013-06-14 13:30:00,85.1,70.6,29.97,SE,125,10.0,10.0,62,0.00,,---,0.00,VWS V14.00,2013-06-14 18:30:00,
2013-06-14 13:35:00,84.9,70.4,29.97,SE,126,4.0,9.0,62,0.00,,---,0.00,VWS V14.00,2013-06-14 18:35:00,
2013-06-14 13:40:00,85.3,70.8,29.97,SE,127,0.0,0.0,62,0.00,,---,0.00,VWS V14.00,2013-06-14 18:40:00,
2013-06-14 13:45:00,85.7,70.7,29.97,SE,127,0.0,0.0,61,0.00,,---,0.00,VWS V14.00,2013-06-14 18:45:00,
2013-06-14 13:50:00,86.3,71.3,29.97,SE,127,3.0,3.0,61,0.00,,---,0.00,VWS V14.00,2013-06-14 18:50:00,
2013-06-14 13:55:00,86.7,71.2,29.96,SE,127,0.0,0.0,60,0.00,,---,0.00,VWS V14.00,2013-06-14 18:55:00,
2013-06-14 14:00:00,86.7,71.2,29.96,East,94,0.0,0.0,60,0.00,,---,0.00,VWS V14.00,2013-06-14 19:00:00,
2013-06-14 14:05:00,86.5,71.0,29.96,East,101,3.0,4.0,60,0.00,,---,0.00,VWS V14.00,2013-06-14 19:05:00,
2013-06-14 14:10:00,85.9,71.4,29.96,East,101,3.0,4.0,62,0.00,,---,0.00,VWS V14.00,2013-06-14 19:10:00,
2013-06-14 14:15:00,85.9,70.9,29.96,ESE,118,2.0,4.0,61,0.00,,---,0.00,VWS V14.00,2013-06-14 19:15:00,
2013-06-14 14:20:00,86.1,70.6,29.96,ESE,119,0.0,0.0,60,0.00,,---,0.00,VWS V14.00,2013-06-14 19:20:00,
2013-06-14 14:25:00,86.7,72.1,29.96,ESE,120,0.0,3.0,62,0.00,,---,0.00,VWS V14.00,2013-06-14 19:25:00,
2013-06-14 14:30:00,87.4,71.3,29.96,ESE,120,0.0,0.0,59,0.00,,---,0.00,VWS V14.00,2013-06-14 19:30:00,
2013-06-14 14:35:00,88.0,71.9,29.96,ESE,120,0.0,1.0,59,0.00,,---,0.00,VWS V14.00,2013-06-14 19:35:00,
2013-06-14 14:40:00,88.0,71.4,29.96,ESE,120,0.0,1.0,58,0.00,,---,0.00,VWS V14.00,2013-06-14 19:40:00,
2013-06-14 14:45:00,87.8,71.2,29.95,ESE,120,0.0,0.0,58,0.00,,---,0.00,VWS V14.00,2013-06-14 19:45:00,
2013-06-14 14:50:00,87.8,71.2,29.95,ESE,120,1.0,2.0,58,0.00,,---,0.00,VWS V14.00,2013-06-14 19:50:00,
2013-06-14 14:55:00,87.4,70.8,29.95,ESE,120,0.0,1.0,58,0.00,,---,0.00,VWS V14.00,2013-06-14 19:55:00,
2013-06-14 15:00:00,87.6,71.0,29.95,ESE,121,0.0,0.0,58,0.00,,---,0.00,VWS V14.00,2013-06-14 20:00:00,
2013-06-14 15:05:00,87.8,71.7,29.94,ESE,115,0.0,2.0,59,0.00,,---,0.00,VWS V14.00,2013-06-14 20:05:00,
2013-06-14 15:10:00,87.6,72.0,29.94,ESE,113,4.0,5.0,60,0.00,,---,0.00,VWS V14.00,2013-06-14 20:10:00,
2013-06-14 15:15:00,87.0,70.9,29.94,ESE,111,5.0,7.0,59,0.00,,---,0.00,VWS V14.00,2013-06-14 20:15:00,
2013-06-14 15:20:00,87.2,71.1,29.94,SE,145,0.0,0.0,59,0.00,,---,0.00,VWS V14.00,2013-06-14 20:20:00,
2013-06-14 15:25:00,87.4,70.8,29.94,East,86,0.0,0.0,58,0.00,,---,0.00,VWS V14.00,2013-06-14 20:25:00,
2013-06-14 15:30:00,88.0,71.4,29.94,East,81,0.0,0.0,58,0.00,,---,0.00,VWS V14.00,2013-06-14 20:30:00,
2013-06-14 15:35:00,88.8,71.6,29.94,ENE,65,0.0,0.0,57,0.00,,---,0.00,VWS V14.00,2013-06-14 20:35:00,
2013-06-14 15:40:00,89.5,71.7,29.93,ENE,65,0.0,0.0,56,0.00,,---,0.00,VWS V14.00,2013-06-14 20:40:00,
2013-06-14 15:45:00,89.0,71.3,29.94,ENE,66,0.0,0.0,56,0.00,,---,0.00,VWS V14.00,2013-06-14 20:45:00,
2013-06-14 15:50:00,89.3,72.1,29.93,ENE,66,0.0,0.0,57,0.00,,---,0.00,VWS V14.00,2013-06-14 20:50:00,
2013-06-14 15:55:00,89.5,72.3,29.92,ENE,66,0.0,0.0,57,0.00,,---,0.00,VWS V14.00,2013-06-14 20:55:00,
2013-06-14 16:00:00,89.3,71.6,29.93,NE,55,0.0,0.0,56,0.00,,---,0.00,VWS V14.00,2013-06-14 21:00:00,
2013-06-14 16:05:00,89.0,72.3,29.93,ENE,59,2.0,3.0,58,0.00,,---,0.00,VWS V14.00,2013-06-14 21:05:00,
2013-06-14 16:10:00,88.6,70.9,29.93,East,86,0.0,0.0,56,0.00,,---,0.00,VWS V14.00,2013-06-14 21:10:00,
2013-06-14 16:15:00,88.8,71.6,29.92,East,93,0.0,0.0,57,0.00,,---,0.00,VWS V14.00,2013-06-14 21:15:00,
2013-06-14 16:20:00,89.3,71.6,29.92,East,93,1.0,1.0,56,0.00,,---,0.00,VWS V14.00,2013-06-14 21:20:00,
2013-06-14 16:25:00,88.6,70.9,29.92,East,99,1.0,2.0,56,0.00,,---,0.00,VWS V14.00,2013-06-14 21:25:00,
2013-06-14 16:30:00,88.4,70.7,29.92,East,99,5.0,5.0,56,0.00,,---,0.00,VWS V14.00,2013-06-14 21:30:00,
2013-06-14 16:35:00,88.4,71.2,29.92,ESE,103,0.0,1.0,57,0.00,,---,0.00,VWS V14.00,2013-06-14 21:35:00,
2013-06-14 16:40:00,88.6,70.9,29.92,East,101,0.0,0.0,56,0.00,,---,0.00,VWS V14.00,2013-06-14 21:40:00,
2013-06-14 16:45:00,88.8,72.1,29.92,ESE,103,2.0,2.0,58,0.00,,---,0.00,VWS V14.00,2013-06-14 21:45:00,
2013-06-14 16:50:00,88.4,71.8,29.92,East,99,3.0,4.0,58,0.00,,---,0.00,VWS V14.00,2013-06-14 21:50:00,
2013-06-14 16:55:00,88.2,71.6,29.91,East,99,7.0,8.0,58,0.00,,---,0.00,VWS V14.00,2013-06-14 21:55:00,
2013-06-14 17:00:00,88.2,71.1,29.91,ESE,111,6.0,7.0,57,0.00,,---,0.00,VWS V14.00,2013-06-14 22:00:00,
2013-06-14 17:05:00,88.2,70.5,29.91,ESE,113,4.0,5.0,56,0.00,,---,0.00,VWS V14.00,2013-06-14 22:05:00,
2013-06-14 17:10:00,88.2,70.5,29.91,ESE,106,2.0,2.0,56,0.00,,---,0.00,VWS V14.00,2013-06-14 22:10:00,
2013-06-14 17:15:00,88.4,71.2,29.91,ESE,106,0.0,0.0,57,0.00,,---,0.00,VWS V14.00,2013-06-14 22:15:00,
2013-06-14 17:20:00,88.6,71.4,29.91,ESE,106,0.0,0.0,57,0.00,,---,0.00,VWS V14.00,2013-06-14 22:20:00,
2013-06-14 17:25:00,88.8,71.6,29.91,ESE,106,2.0,2.0,57,0.00,,---,0.00,VWS V14.00,2013-06-14 22:25:00,
2013-06-14 17:30:00,88.6,71.4,29.91,ESE,107,4.0,4.0,57,0.00,,---,0.00,VWS V14.00,2013-06-14 22:30:00,
2013-06-14 17:35:00,88.8,72.1,29.91,ESE,121,3.0,3.0,58,0.00,,---,0.00,VWS V14.00,2013-06-14 22:35:00,
2013-06-14 17:40:00,88.8,72.6,29.91,ESE,121,0.0,0.0,59,0.00,,---,0.00,VWS V14.00,2013-06-14 22:40:00,
2013-06-14 17:45:00,88.6,71.4,29.91,East,100,0.0,0.0,57,0.00,,---,0.00,VWS V14.00,2013-06-14 22:45:00,
2013-06-14 17:50:00,88.4,71.8,29.91,ESE,103,0.0,0.0,58,0.00,,---,0.00,VWS V14.00,2013-06-14 22:50:00,
2013-06-14 17:55:00,88.4,72.3,29.91,ENE,78,0.0,0.0,59,0.00,,---,0.00,VWS V14.00,2013-06-14 22:55:00,
2013-06-14 18:00:00,88.4,71.8,29.91,East,93,0.0,1.0,58,0.00,,---,0.00,VWS V14.00,2013-06-14 23:00:00,
2013-06-14 18:05:00,88.6,72.4,29.90,ENE,75,0.0,0.0,59,0.00,,---,0.00,VWS V14.00,2013-06-14 23:05:00,
2013-06-14 18:10:00,88.6,71.9,29.90,ENE,78,1.0,1.0,58,0.00,,---,0.00,VWS V14.00,2013-06-14 23:10:00,
2013-06-14 18:15:00,88.8,72.6,29.90,East,80,0.0,0.0,59,0.00,,---,0.00,VWS V14.00,2013-06-14 23:15:00,
2013-06-14 18:20:00,88.8,71.6,29.90,East,80,2.0,2.0,57,0.00,,---,0.00,VWS V14.00,2013-06-14 23:20:00,
2013-06-14 18:25:00,88.6,71.9,29.90,East,84,1.0,1.0,58,0.00,,---,0.00,VWS V14.00,2013-06-14 23:25:00,
2013-06-14 18:30:00,88.6,71.9,29.90,East,84,1.0,1.0,58,0.00,,---,0.00,VWS V14.00,2013-06-14 23:30:00,
2013-06-14 18:35:00,88.4,72.3,29.90,East,84,2.0,2.0,59,0.00,,---,0.00,VWS V14.00,2013-06-14 23:35:00,
2013-06-14 18:40:00,88.2,72.1,29.90,East,84,0.0,0.0,59,0.00,,---,0.00,VWS V14.00,2013-06-14 23:40:00,
2013-06-14 18:45:00,88.0,71.9,29.90,East,85,1.0,2.0,59,0.00,,---,0.00,VWS V14.00,2013-06-14 23:45:00,
2013-06-14 18:50:00,87.8,72.7,29.90,East,98,1.0,2.0,61,0.00,,---,0.00,VWS V14.00,2013-06-14 23:50:00,
2013-06-14 18:55:00,87.6,72.5,29.90,East,93,0.0,0.0,61,0.00,,---,0.00,VWS V14.00,2013-06-14 23:55:00,
2013-06-14 19:00:00,87.6,73.0,29.90,East,93,0.0,0.0,62,0.00,,---,0.00,VWS V14.00,2013-06-15 00:00:00,
2013-06-14 19:05:00,87.4,73.3,29.90,East,84,0.0,0.0,63,0.00,,---,0.00,VWS V14.00,2013-06-15 00:05:00,
2013-06-14 19:10:00,87.4,73.3,29.90,East,84,0.0,0.0,63,0.00,,---,0.00,VWS V14.00,2013-06-15 00:10:00,
2013-06-14 19:15:00,87.4,73.3,29.89,East,92,0.0,0.0,63,0.00,,---,0.00,VWS V14.00,2013-06-15 00:15:00,
2013-06-14 19:20:00,87.4,73.3,29.89,ESE,103,1.0,2.0,63,0.00,,---,0.00,VWS V14.00,2013-06-15 00:20:00,
2013-06-14 19:25:00,87.2,73.1,29.90,ESE,111,1.0,1.0,63,0.00,,---,0.00,VWS V14.00,2013-06-15 00:25:00,
2013-06-14 19:30:00,87.0,73.8,29.89,ESE,113,0.0,0.0,65,0.00,,---,0.00,VWS V14.00,2013-06-15 00:30:00,
2013-06-14 19:35:00,86.7,73.1,29.90,ESE,113,1.0,1.0,64,0.00,,---,0.00,VWS V14.00,2013-06-15 00:35:00,
2013-06-14 19:40:00,86.5,73.3,29.90,ESE,114,0.0,1.0,65,0.00,,---,0.00,VWS V14.00,2013-06-15 00:40:00,
2013-06-14 19:45:00,86.3,73.2,29.90,ESE,123,0.0,0.0,65,0.00,,---,0.00,VWS V14.00,2013-06-15 00:45:00,
2013-06-14 19:50:00,85.9,72.8,29.90,ESE,123,0.0,0.0,65,0.00,,---,0.00,VWS V14.00,2013-06-15 00:50:00,
2013-06-14 19:55:00,85.7,73.0,29.90,East,101,2.0,2.0,66,0.00,,---,0.00,VWS V14.00,2013-06-15 00:55:00,
2013-06-14 20:00:00,85.3,72.7,29.91,SSE,162,0.0,0.0,66,0.00,,---,0.00,VWS V14.00,2013-06-15 01:00:00,
2013-06-14 20:05:00,85.1,72.9,29.91,SSE,162,0.0,0.0,67,0.00,,---,0.00,VWS V14.00,2013-06-15 01:05:00,
2013-06-14 20:10:00,84.9,72.7,29.91,SSE,162,0.0,0.0,67,0.00,,---,0.00,VWS V14.00,2013-06-15 01:10:00,
2013-06-14 20:15:00,84.7,72.5,29.90,SSE,162,0.0,0.0,67,0.00,,---,0.00,VWS V14.00,2013-06-15 01:15:00,
2013-06-14 20:20:00,84.3,72.6,29.91,SSE,162,0.0,0.0,68,0.00,,---,0.00,VWS V14.00,2013-06-15 01:20:00,
2013-06-14 20:25:00,84.0,72.7,29.91,SSE,162,0.0,0.0,69,0.00,,---,0.00,VWS V14.00,2013-06-15 01:25:00,
2013-06-14 20:30:00,83.8,72.6,29.91,SSE,162,0.0,1.0,69,0.00,,---,0.00,VWS V14.00,2013-06-15 01:30:00,
2013-06-14 20:35:00,83.4,72.6,29.91,SSE,162,0.0,0.0,70,0.00,,---,0.00,VWS V14.00,2013-06-15 01:35:00,
2013-06-14 20:40:00,83.2,72.0,29.91,SSE,162,0.0,2.0,69,0.00,,---,0.00,VWS V14.00,2013-06-15 01:40:00,
2013-06-14 20:45:00,83.0,72.2,29.91,SSE,162,0.0,1.0,70,0.00,,---,0.00,VWS V14.00,2013-06-15 01:45:00,
2013-06-14 20:50:00,82.8,72.4,29.91,SSE,162,0.0,1.0,71,0.00,,---,0.00,VWS V14.00,2013-06-15 01:50:00,
2013-06-14 20:55:00,82.4,71.6,29.92,SSE,162,0.0,0.0,70,0.00,,---,0.00,VWS V14.00,2013-06-15 01:55:00,
2013-06-14 21:00:00,82.2,71.9,29.92,SSE,162,0.0,0.0,71,0.00,,---,0.00,VWS V14.00,2013-06-15 02:00:00,
2013-06-14 21:05:00,82.0,72.1,29.92,SSE,162,0.0,0.0,72,0.00,,---,0.00,VWS V14.00,2013-06-15 02:05:00,
2013-06-14 21:10:00,81.6,71.7,29.92,SSE,162,0.0,0.0,72,0.00,,---,0.00,VWS V14.00,2013-06-15 02:10:00,
2013-06-14 21:15:00,81.4,71.9,29.92,SSE,162,0.0,2.0,73,0.00,,---,0.00,VWS V14.00,2013-06-15 02:15:00,
2013-06-14 21:20:00,81.4,72.3,29.92,SSE,162,2.0,4.0,74,0.00,,---,0.00,VWS V14.00,2013-06-15 02:20:00,
2013-06-14 21:25:00,81.4,71.9,29.92,SSE,162,0.0,0.0,73,0.00,,---,0.00,VWS V14.00,2013-06-15 02:25:00,
2013-06-14 21:30:00,81.4,71.9,29.93,SSE,162,0.0,0.0,73,0.00,,---,0.00,VWS V14.00,2013-06-15 02:30:00,
2013-06-14 21:35:00,81.2,71.3,29.93,SSE,162,0.0,0.0,72,0.00,,---,0.00,VWS V14.00,2013-06-15 02:35:00,
2013-06-14 21:40:00,81.2,71.3,29.94,SSE,162,0.0,0.0,72,0.00,,---,0.00,VWS V14.00,2013-06-15 02:40:00,
2013-06-14 21:45:00,81.1,71.6,29.94,SSE,162,0.0,0.0,73,0.00,,---,0.00,VWS V14.00,2013-06-15 02:45:00,
2013-06-14 21:50:00,80.9,71.4,29.94,SSE,162,0.0,0.0,73,0.00,,---,0.00,VWS V14.00,2013-06-15 02:50:00,
2013-06-14 21:55:00,80.5,71.5,29.94,SSE,162,0.0,0.0,74,0.00,,---,0.00,VWS V14.00,2013-06-15 02:55:00,
2013-06-14 22:00:00,80.3,71.7,29.94,SSE,162,0.0,0.0,75,0.00,,---,0.00,VWS V14.00,2013-06-15 03:00:00,
2013-06-14 22:05:00,79.9,71.3,29.94,SSE,162,0.0,0.0,75,0.00,,---,0.00,VWS V14.00,2013-06-15 03:05:00,
2013-06-14 22:10:00,79.9,71.3,29.94,SSE,162,0.0,0.0,75,0.00,,---,0.00,VWS V14.00,2013-06-15 03:10:00,
2013-06-14 22:15:00,79.6,71.4,29.94,SSE,162,0.0,0.0,76,0.00,,---,0.00,VWS V14.00,2013-06-15 03:15:00,
2013-06-14 22:20:00,79.4,71.2,29.94,SSE,162,0.0,0.0,76,0.00,,---,0.00,VWS V14.00,2013-06-15 03:20:00,
2013-06-14 22:25:00,79.4,71.6,29.95,SSE,162,0.0,0.0,77,0.00,,---,0.00,VWS V14.00,2013-06-15 03:25:00,
2013-06-14 22:30:00,79.0,71.2,29.95,SSE,162,0.0,0.0,77,0.00,,---,0.00,VWS V14.00,2013-06-15 03:30:00,
2013-06-14 22:35:00,79.0,71.2,29.96,SSE,162,0.0,0.0,77,0.00,,---,0.00,VWS V14.00,2013-06-15 03:35:00,
2013-06-14 22:40:00,78.6,71.2,29.96,SSE,162,0.0,0.0,78,0.00,,---,0.00,VWS V14.00,2013-06-15 03:40:00,
2013-06-14 22:45:00,78.5,71.1,29.96,SSE,162,0.0,0.0,78,0.00,,---,0.00,VWS V14.00,2013-06-15 03:45:00,
2013-06-14 22:50:00,78.1,69.9,29.96,SSE,162,0.0,0.0,76,0.00,,---,0.00,VWS V14.00,2013-06-15 03:50:00,
2013-06-14 22:55:00,77.9,69.7,29.96,SSE,162,0.0,0.0,76,0.00,,---,0.00,VWS V14.00,2013-06-15 03:55:00,
2013-06-14 23:00:00,77.9,69.7,29.96,SSE,162,0.0,0.0,76,0.00,,---,0.00,VWS V14.00,2013-06-15 04:00:00,
2013-06-14 23:01:00,77.9,69.7,29.96,SSE,162,0.0,0.0,76,0.00,,---,0.00,VWS V14.00,2013-06-15 04:01:00,
2013-06-14 23:06:00,77.9,69.3,29.96,SSE,162,0.0,0.0,75,0.00,,---,0.00,VWS V14.00,2013-06-15 04:06:00,
2013-06-14 23:11:00,77.7,68.8,29.96,SSE,162,0.0,0.0,74,0.00,,---,0.00,VWS V14.00,2013-06-15 04:11:00,
2013-06-14 23:16:00,77.7,68.8,29.96,SSE,162,0.0,0.0,74,0.00,,---,0.00,VWS V14.00,2013-06-15 04:16:00,
2013-06-14 23:21:00,77.6,68.7,29.96,SSE,162,0.0,0.0,74,0.00,,---,0.00,VWS V14.00,2013-06-15 04:21:00,
2013-06-14 23:26:00,77.4,68.5,29.96,SSE,162,0.0,0.0,74,0.00,,---,0.00,VWS V14.00,2013-06-15 04:26:00,
2013-06-14 23:31:00,77.2,68.3,29.96,SSE,162,0.0,0.0,74,0.00,,---,0.00,VWS V14.00,2013-06-15 04:31:00,
2013-06-14 23:36:00,77.0,68.5,29.96,SSE,162,0.0,0.0,75,0.00,,---,0.00,VWS V14.00,2013-06-15 04:36:00,
2013-06-14 23:41:00,76.8,68.7,29.97,SSE,162,0.0,0.0,76,0.00,,---,0.00,VWS V14.00,2013-06-15 04:41:00,
2013-06-14 23:46:00,77.0,68.9,29.97,SSE,162,0.0,0.0,76,0.00,,---,0.00,VWS V14.00,2013-06-15 04:46:00,
2013-06-14 23:51:00,77.0,68.9,29.97,SSE,162,0.0,0.0,76,0.00,,---,0.00,VWS V14.00,2013-06-15 04:51:00,
2013-06-14 23:56:00,76.8,69.4,29.97,SSE,162,0.0,0.0,78,0.00,,---,0.00,VWS V14.00,2013-06-15 04:56:00,